カタログに戻る

STARLINK-34275

運用中通信VLEO
NORAD 64413·PAYLOAD·🇺🇸 United States

打ち上げ Jun 17, 2025 から Vandenberg Space Force Base

Loading…

次のパス (今後24時間)

TLE

最新Source: CelesTrak SupGP

元期: Sep 14, 2026, 21:05 UTC

1 64413C 25129B   26257.87895833 -.00019781  00000+0 -68859-3 0  2573
2 64413  69.9991 315.6436 0003449 268.9907   2.6781 15.29565672    15

AllMySatでSTARLINK-34275をリアルタイム追跡

Download on the App Store